sat.trackr.live / text

‹ back to catalog

BANDWAGON-2 OBJECT AC

NORAD 62403 · 2024-247AC

PAYLOAD ACTIVE UNKNOWN

§ Identity

Operator
Country
TBD
Launch date
2024-12-21
Launch site
AFWTR
Launch vehicle
Mass (kg)
RCS (m²)

External: N2YO · Heavens-Above · Gunter

§ Orbital elements

Epoch: 2026-05-25T00:19:03.567936Z

Period
93.63 min
Inclination
45.0047°
Eccentricity
0.0003760
Mean motion
15.37950044 rev/d
Perigee alt
449.6 km
Apogee alt
454.7 km
Semi-major
6,830.3 km
B*
4.3866e-4
RAAN
44.6424°
Arg perigee
152.8739°
Mean anomaly
207.2345°
Rev number
7,959

§ Raw data

BANDWAGON-2 OBJECT AC1 62403U 24247AC  26145.01323574  .00016419  00000+0  43866-3 0  99972 62403  45.0047  44.6424 0003760 152.8739 207.2345 15.37950044 79593

JSON: /api/v1/satellites/62403 · /tle

For live sub-satellite position, see the globe view (requires WebGL).

§ Visibility from observer

Set your observer location to see the next 7 days of passes ≥ 10°. The values pass through the URL so the page stays shareable.

No JS? Fill the form by hand. The geolocation button needs JavaScript.